Regional Weather Roundup
Issued by NWS

Home | Current Version | Previous Version | Graphics & Text | Print | Product List | Glossary On
Versions: 1 2 3 4 5 6 7 8 9 10 11 12 13 14 15 16 17 18 19 20 21 22 23 24 25 26 27 28 29 30 31 32 33 34 35 36 37 38 39 40 41 42 43 44 45 46 47 48 49 50
000
ASUS43 KDMX 011707
RWRIA

WEATHER ROUNDUP FOR IOWA
NATIONAL WEATHER SERVICE DES MOINES IA
1200 PM CDT WED OCT 01 2014

NOTE: "FAIR" INDICATES FEW OR NO CLOUDS BELOW 12,000 FEET WITH NO
SIGNIFICANT WEATHER AND/OR OBSTRUCTIONS TO VISIBILITY.

* - THESE STATIONS ARE NOT NWS STATIONS...THUS NOT UNDER NWS
QUALITY CONTROL.  THEY ALSO DO NOT REPORT WEATHER SUCH
AS PRECIPITATION OR FOG.

IAZ001>003-012>014-020>022-031>034-043>046-011800-
   NORTHWEST IOWA

CITY           SKY/WX    TMP DP  RH WIND       PRES   REMARKS
CARROLL *      CLOUDY    68  63  83 S8        29.77R
CHEROKEE *     CLOUDY    64  63  94 CALM      29.75S
DENISON *      MOSUNNY   68  63  83 SW6       29.75S
LE MARS *      SUNNY     70  61  73 S8        29.74S
ORANGE CITY *  SUNNY     70  59  68 SE6       29.74S
SHELDON *      CLOUDY    66  61  82 SE7       29.73F
SIOUX CITY     MOSUNNY   69  60  73 S9        29.74R
SPENCER        CLOUDY    59  56  89 E8        29.76F
STORM LAKE *   CLOUDY    64  59  82 VRB6      29.77F
$$

IAZ055>058-069>071-079>083-090>094-011800-
   SOUTHWEST IOWA

CITY           SKY/WX    TMP DP  RH WIND       PRES   REMARKS
ATLANTIC *     CLOUDY    66  64  94 S6        29.77R
AUDUBON *      PTSUNNY   68  61  77 S9        29.78R
CLARINDA *     CLOUDY    70  66  88 S9        29.78R
COUNCIL BLFS * CLOUDY    68  68 100 S7        29.75F
CRESTON *      CLOUDY    66  64  94 S15G22    29.79S
HARLAN  *      CLOUDY    68  64  88 S7        29.80R
LAMONI         CLOUDY    64  61  90 SE12      29.81R
RED OAK *      CLOUDY    68  66  94 S7        29.76S
SHENANDOAH *   CLOUDY    70  66  88 S12       29.76S
$$

IAZ047>049-059>061-072>074-084-011800-
   CENTRAL IOWA

CITY           SKY/WX    TMP DP  RH WIND       PRES   REMARKS
AMES           CLOUDY    62  62 100 S7        29.80R FOG
ANKENY *       CLOUDY    64  63  94 S8        29.80R
CHARITON *     PTSUNNY   64  63  94 S14G21    29.81R
DES MOINES     CLOUDY    67  61  81 S8        29.79S
GRINNELL*      CLOUDY    61  57  88 SE8       29.83R
KNOXVILLE *    PTSUNNY   64  61  88 S12G17    29.80R
MARSHALLTOWN   CLOUDY    60  57  89 S12       29.81S
PELLA *        PTSUNNY   63  61  94 SE8       29.83R
PERRY *        CLOUDY    66  64  94 S6        29.78R
$$

IAZ004>006-015-016-023>025-035-036-011800-
   NORTH CENTRAL IOWA

CITY           SKY/WX    TMP DP  RH WIND       PRES   REMARKS
ALGONA *       PTSUNNY   61  59  94 S10G16    29.78R FOG
CLARION *      CLOUDY    57  57 100 SE9       29.80S
ESTHERVILLE    CLOUDY    57  56  96 SE5       29.77F FOG
FORT DODGE *   CLOUDY    63  59  88 S7        29.79S
MASON CITY     CLOUDY    54  53  97 S13       29.83R FOG
FOREST CITY *  CLOUDY    55  55 100 SE9G17    29.80F FOG
IOWA FALLS *   LGT RAIN  57  55  94 SE6       29.82S
$$

IAZ007>011-017>019-026>030-037>042-050>054-066-011800-
   NORTHEAST IOWA

CITY           SKY/WX    TMP DP  RH WIND       PRES   REMARKS
CEDAR RAPIDS   MOSUNNY   59  55  88 SE12      29.83F
CHARLES CITY * CLOUDY    55  52  88 S9        29.84R
CLINTON *      CLOUDY    64  54  68 SE13      29.93F
DECORAH *      PTSUNNY   55  50  82 SE8       29.84S
DUBUQUE        PTSUNNY   59  52  77 SE18      29.86
MONTICELLO *   SUNNY     61  52  72 SE12      29.85F
OELWEIN *      MOSUNNY   61  54  77 SE14G22   29.84S
WATERLOO       CLOUDY    60  55  83 S8        29.82S
$$

IAZ064-065-067-068-078-011800-
   EAST CENTRAL IOWA

CITY           SKY/WX    TMP DP  RH WIND       PRES   REMARKS
IOWA CITY      CLOUDY    59  55  87 SE7       29.85F
MT. PLEASANT * CLOUDY    59  57  94 SE9       29.87F
MUSCATINE *    MOSUNNY   63  54  72 SE10      29.88F
$$

IAZ062-063-075>077-085>089-095>099-011800-
   SOUTHEAST IOWA

CITY           SKY/WX    TMP DP  RH WIND       PRES   REMARKS
BURLINGTON     LGT RAIN  62  56  80 SE9       29.88F
FAIRFIELD *    CLOUDY    59  57  94 SE16      29.83S
FORT MADISON * RAIN      61  57  88 E5        29.87F
KEOKUK *       LGT RAIN  59  59 100 SE7       29.87F
OSKALOOSA *    CLOUDY    61  59  94 S13       29.84R
CENTERVILLE *  LGT RAIN  61  61 100 SE10      29.86R
OTTUMWA        LGT RAIN  60  58  92 S12       29.84R FOG
WASHINGTON *   CLOUDY    59  57  94 S10G17    29.84R
$$

ABBREVIATIONS USED IN REMARKS
   TC - TEMPERATURES IN CELSIUS
  WCI - WIND CHILL INDEX
   HX - HEAT INDEX
  VSB - VISIBILITY
$$



USA.gov is the U.S. government's official web portal to all federal, state and local government web resources and services.